• In Romania
  • List of Countries
  • For 7 days
  • Water Temperature
  • Satellite Maps
  • Weather Map
  • Weather Widgets
  • user-avatar
    Login

    Hourly Weather Ploscha

    Today, 23 September, Sunday

    Time Temperature Precipitation Wind Pressure Humidity
    00:00 +9°C° 0.5 mm 3 mps 742 mmHg 94%
    01:00 +9°C° 0.5 mm 3 mps 742 mmHg 94%
    02:00 +9°C° 0.5 mm 3 mps 741 mmHg 94%
    03:00 +9°C° 0 mm 3 mps 741 mmHg 95%
    04:00 +8°C° 0 mm 3 mps 741 mmHg 95%
    05:00 +8°C° 0 mm 3 mps 741 mmHg 96%
    06:00 +8°C° 0 mm 3 mps 741 mmHg 94%
    07:00 +8°C° 0 mm 3 mps 741 mmHg 92%
    08:00 +9°C° 0 mm 3 mps 741 mmHg 91%
    09:00 +10°C° 0 mm 4 mps 741 mmHg 84%
    10:00 +11°C° 0 mm 4 mps 741 mmHg 76%
    11:00 +13°C° 0 mm 5 mps 740 mmHg 69%
    12:00 +13°C° 0.2 mm 5 mps 740 mmHg 68%
    13:00 +13°C° 0.2 mm 5 mps 740 mmHg 66%
    14:00 +14°C° 0.2 mm 5 mps 740 mmHg 64%
    15:00 +13°C° 0.2 mm 4 mps 740 mmHg 69%
    16:00 +12°C° 0.2 mm 3 mps 740 mmHg 74%
    17:00 +11°C° 0.2 mm 3 mps 740 mmHg 79%
    18:00 +10°C° 0.1 mm 3 mps 740 mmHg 83%
    19:00 +9°C° 0.1 mm 2 mps 740 mmHg 87%
    20:00 +8°C° 0.1 mm 2 mps 740 mmHg 91%
    21:00 +8°C° 0 mm 2 mps 740 mmHg 91%
    22:00 +7°C° 0 mm 3 mps 740 mmHg 92%
    23:00 +7°C° 0 mm 3 mps 740 mmHg 92%

    Tomorrow, 24 September, Monday

    Time Temperature Precipitation Wind Pressure Humidity
    00:00 +7°C° 0 mm 2 mps 740 mmHg 93%
    01:00 +7°C° 0 mm 2 mps 740 mmHg 94%
    02:00 +6°C° 0 mm 2 mps 740 mmHg 95%
    03:00 +6°C° 0 mm 2 mps 740 mmHg 95%
    04:00 +6°C° 0 mm 2 mps 739 mmHg 96%
    05:00 +6°C° 0 mm 2 mps 739 mmHg 97%
    06:00 +7°C° 0.1 mm 2 mps 738 mmHg 96%
    07:00 +7°C° 0.1 mm 2 mps 738 mmHg 95%
    08:00 +8°C° 0.1 mm 2 mps 738 mmHg 94%
    09:00 +8°C° 0.6 mm 2 mps 738 mmHg 94%
    10:00 +8°C° 0.6 mm 2 mps 737 mmHg 93%
    11:00 +9°C° 0.6 mm 2 mps 737 mmHg 93%
    12:00 +8°C° 1.7 mm 2 mps 736 mmHg 94%
    13:00 +8°C° 1.7 mm 2 mps 735 mmHg 94%
    14:00 +8°C° 1.7 mm 2 mps 735 mmHg 95%
    15:00 +8°C° 1.3 mm 2 mps 734 mmHg 95%
    16:00 +8°C° 1.3 mm 3 mps 734 mmHg 95%
    17:00 +8°C° 1.3 mm 3 mps 733 mmHg 95%
    18:00 +6°C° 0.9 mm 4 mps 733 mmHg 94%
    19:00 +6°C° 0.9 mm 4 mps 733 mmHg 94%
    20:00 +6°C° 0.9 mm 5 mps 733 mmHg 93%
    21:00 +6°C° 0.5 mm 5 mps 733 mmHg 92%
    22:00 +5°C° 0.5 mm 6 mps 734 mmHg 92%
    23:00 +5°C° 0.5 mm 6 mps 734 mmHg 91%

    Day after tomorrow, 25 September, Tuesday

    Time Temperature Precipitation Wind Pressure Humidity
    00:00 +5°C° 0.2 mm 6 mps 734 mmHg 90%
    01:00 +4°C° 0.2 mm 6 mps 735 mmHg 89%
    02:00 +4°C° 0.2 mm 6 mps 735 mmHg 88%
    03:00 +4°C° 0 mm 6 mps 736 mmHg 88%
    04:00 +3°C° 0 mm 6 mps 736 mmHg 88%
    05:00 +3°C° 0 mm 6 mps 737 mmHg 88%
    06:00 +3°C° 0.1 mm 6 mps 738 mmHg 87%
    07:00 +3°C° 0.1 mm 6 mps 738 mmHg 85%
    08:00 +4°C° 0.1 mm 6 mps 739 mmHg 84%
    09:00 +4°C° 0.1 mm 6 mps 740 mmHg 82%
    10:00 +4°C° 0.1 mm 6 mps 740 mmHg 81%
    11:00 +5°C° 0.1 mm 6 mps 741 mmHg 79%
    12:00 +5°C° 0.1 mm 6 mps 742 mmHg 74%
    13:00 +7°C° 0.1 mm 6 mps 742 mmHg 69%
    14:00 +8°C° 0.1 mm 6 mps 743 mmHg 64%
    15:00 +7°C° 0 mm 5 mps 744 mmHg 65%
    16:00 +7°C° 0 mm 5 mps 744 mmHg 67%
    17:00 +6°C° 0 mm 5 mps 745 mmHg 68%
    18:00 +5°C° 0 mm 4 mps 746 mmHg 70%
    19:00 +4°C° 0 mm 4 mps 747 mmHg 71%
    20:00 +4°C° 0 mm 4 mps 747 mmHg 72%
    21:00 +3°C° 0 mm 4 mps 748 mmHg 72%
    22:00 +3°C° 0 mm 4 mps 749 mmHg 71%
    23:00 +2°C° 0 mm 3 mps 749 mmHg 70%

    26 September, Wednesday

    Time Temperature Precipitation Wind Pressure Humidity
    00:00 +2°C° 0 mm 3 mps 750 mmHg 74%
    01:00 +2°C° 0 mm 3 mps 750 mmHg 77%
    02:00 +1°C° 0 mm 3 mps 751 mmHg 80%
    03:00 +1°C° 0 mm 3 mps 751 mmHg 83%
    04:00 +1°C° 0 mm 3 mps 752 mmHg 86%
    05:00 +1°C° 0 mm 3 mps 752 mmHg 89%
    06:00 +2°C° 0 mm 3 mps 752 mmHg 83%
    07:00 +3°C° 0 mm 3 mps 753 mmHg 78%
    08:00 +4°C° 0 mm 3 mps 753 mmHg 73%
    09:00 +6°C° 0 mm 4 mps 753 mmHg 66%
    10:00 +7°C° 0 mm 4 mps 752 mmHg 60%
    11:00 +10°C° 0 mm 4 mps 752 mmHg 54%
    12:00 +10°C° 0 mm 5 mps 752 mmHg 55%
    13:00 +10°C° 0 mm 5 mps 751 mmHg 56%
    14:00 +12°C° 0 mm 5 mps 750 mmHg 57%
    15:00 +10°C° 0 mm 5 mps 750 mmHg 62%
    16:00 +10°C° 0 mm 5 mps 749 mmHg 68%
    17:00 +9°C° 0 mm 5 mps 749 mmHg 73%
    18:00 +8°C° 0.3 mm 5 mps 748 mmHg 78%
    19:00 +8°C° 0.3 mm 6 mps 748 mmHg 82%
    20:00 +7°C° 0.3 mm 6 mps 747 mmHg 87%
    21:00 +6°C° 0.6 mm 7 mps 746 mmHg 87%
    22:00 +6°C° 0.6 mm 7 mps 745 mmHg 88%
    23:00 +5°C° 0.6 mm 7 mps 744 mmHg 88%

    27 September, Thursday

    Time Temperature Precipitation Wind Pressure Humidity
    00:00 +5°C° 0.5 mm 8 mps 743 mmHg 88%
    01:00 +5°C° 0.5 mm 8 mps 742 mmHg 88%
    02:00 +5°C° 0.5 mm 8 mps 740 mmHg 88%
    03:00 +5°C° 0.5 mm 8 mps 740 mmHg 89%
    04:00 +5°C° 0.5 mm 8 mps 739 mmHg 89%
    05:00 +5°C° 0.5 mm 8 mps 738 mmHg 90%
    06:00 +6°C° 0.5 mm 7 mps 738 mmHg 89%
    07:00 +8°C° 0.5 mm 6 mps 738 mmHg 88%
    08:00 +8°C° 0.5 mm 6 mps 738 mmHg 88%
    09:00 +9°C° 0.2 mm 6 mps 738 mmHg 79%
    10:00 +9°C° 0.2 mm 6 mps 738 mmHg 71%
    11:00 +10°C° 0.2 mm 7 mps 738 mmHg 63%
    12:00 +10°C° 0.1 mm 7 mps 739 mmHg 61%
    13:00 +10°C° 0.1 mm 6 mps 739 mmHg 60%
    14:00 +10°C° 0.1 mm 6 mps 739 mmHg 59%
    15:00 +9°C° 0.1 mm 5 mps 739 mmHg 61%
    16:00 +10°C° 0.1 mm 4 mps 739 mmHg 63%
    17:00 +10°C° 0.1 mm 4 mps 740 mmHg 65%
    18:00 +8°C° 0 mm 4 mps 740 mmHg 66%
    19:00 +7°C° 0 mm 4 mps 741 mmHg 66%
    20:00 +6°C° 0 mm 4 mps 741 mmHg 67%
    21:00 +6°C° 0 mm 4 mps 741 mmHg 69%
    22:00 +6°C° 0 mm 4 mps 741 mmHg 71%
    23:00 +5°C° 0 mm 3 mps 741 mmHg 72%

    28 September, Friday

    Time Temperature Precipitation Wind Pressure Humidity
    00:00 +5°C° 0 mm 3 mps 741 mmHg 75%
    01:00 +5°C° 0 mm 3 mps 741 mmHg 78%
    02:00 +4°C° 0 mm 3 mps 741 mmHg 80%
    03:00 +5°C° 0.1 mm 3 mps 741 mmHg 83%
    04:00 +5°C° 0.1 mm 3 mps 741 mmHg 85%
    05:00 +5°C° 0.1 mm 3 mps 740 mmHg 87%
    06:00 +5°C° 0.6 mm 3 mps 740 mmHg 89%
    07:00 +5°C° 0.6 mm 3 mps 740 mmHg 91%
    08:00 +5°C° 0.6 mm 3 mps 740 mmHg 93%
    09:00 +7°C° 0.1 mm 3 mps 740 mmHg 89%
    10:00 +7°C° 0.1 mm 4 mps 740 mmHg 85%
    11:00 +8°C° 0.1 mm 4 mps 741 mmHg 81%
    12:00 +9°C° 0.1 mm 5 mps 741 mmHg 74%
    13:00 +9°C° 0.1 mm 5 mps 742 mmHg 67%
    14:00 +10°C° 0.1 mm 5 mps 742 mmHg 59%
    15:00 +10°C° 0 mm 4 mps 743 mmHg 61%
    16:00 +9°C° 0 mm 3 mps 743 mmHg 64%
    17:00 +8°C° 0 mm 2 mps 743 mmHg 66%
    18:00 +7°C° 0 mm 2 mps 744 mmHg 70%
    19:00 +6°C° 0 mm 2 mps 744 mmHg 74%
    20:00 +5°C° 0 mm 2 mps 745 mmHg 78%
    21:00 +4°C° 0 mm 2 mps 745 mmHg 81%
    22:00 +4°C° 0 mm 2 mps 746 mmHg 84%
    23:00 +4°C° 0 mm 2 mps 746 mmHg 87%
    Show more